Whiting Fld NAS, FL

10:44 AM CDT on March 30, 2017 (GMT -0500)
Whiting Field Naval Air Station (North)

Weather History for KNSE - August, 2013

Change the Weather History Date:

Saturday, August 3, 2013

  Actual Average Record
Temperature  
Mean Temperature 84 °F -  
Max Temperature 93 °F 87 °F 99 °F (2011)
Min Temperature 75 °F 70 °F 37 °F (2006)
Cooling Degree Days 19    
Growing Degree Days 34 (Base 50)    
Moisture  
Dew Point 73 °F    
Average Humidity 76    
Maximum Humidity 94    
Minimum Humidity 45    
Precipitation  
Precipitation 0.00 in - - ()
Sea Level Pressure  
Sea Level Pressure 29.99 in    
Wind  
Wind Speed 3 mph (WNW)    
Max Wind Speed 9 mph    
Max Gust Speed -    
Visibility 7 miles    
Events Rain    
Averages and records for this station are not official NWS values.
T = Trace of Precipitation, MM = Missing Value Source: NWS Daily Summary

Daily Weather History Graph

Daily Weather History Graph

Search for Another Location

Airport or City:

Trip Planner

Search our weather history database for the weather conditions in past years. The results will help you decide how hot, cold, wet, or windy it might be!

Date:

Astronomy

Aug. 03, 2013 Rise Set
Actual Time 6:07 AM CDT 7:40 PM CDT
Civil Twilight 5:41 AM CDT 8:06 PM CDT
Nautical Twilight 5:09 AM CDT 8:37 PM CDT
Astronomical Twilight 4:37 AM CDT 9:10 PM CDT
Moon 3:18 AM CDT (8/3) 5:20 PM CDT (8/3)
Length of Visible Light 14h 25m
Length of Day
13h 33m
Waning Crescent, 9% of the Moon is Illuminated
Aug 3
Waning Crescent
Aug 6
New
Aug 14
First Quarter
Aug 20
Full
Aug 28
Last Quarter

Hourly Weather History & Observations

Time (CDT) Temp. Heat Index Dew Point Humidity Pressure Visibility Wind Dir Wind Speed Gust Speed Precip Events Conditions
12:56 AM 78.1 °F - 73.0 °F 84% 29.98 in 10.0 mi Calm Calm - 0.00 in   Clear
1:56 AM 79.0 °F - 75.0 °F 88% 29.96 in 9.0 mi West 4.6 mph - 0.00 in   Clear
2:56 AM 78.1 °F - 73.9 °F 87% 29.95 in 8.0 mi West 3.5 mph - N/A   Clear
3:56 AM 77.0 °F - 73.9 °F 90% 29.95 in 6.0 mi West 4.6 mph - N/A   Clear
4:56 AM 75.9 °F - 73.0 °F 91% 29.96 in 4.0 mi Calm Calm - N/A   Clear
5:21 AM 75.2 °F - 71.6 °F 89% 30.00 in 2.0 mi Calm Calm - N/A   Clear
5:34 AM 75.2 °F - 73.4 °F 94% 30.00 in 3.0 mi WNW 3.5 mph - N/A   Clear
5:43 AM 75.2 °F - 71.6 °F 89% 30.00 in 1.8 mi Calm Calm - N/A   Clear
5:56 AM 75.9 °F - 73.0 °F 91% 29.96 in 3.0 mi WNW 3.5 mph - 0.00 in Rain Light Rain
6:06 AM 75.2 °F - 71.6 °F 89% 30.01 in 1.8 mi WNW 3.5 mph - 0.00 in   Clear
6:56 AM 77.0 °F - 73.9 °F 90% 29.98 in 2.0 mi Calm Calm - 0.00 in   Clear
7:10 AM 78.8 °F - 73.4 °F 83% 30.03 in 2.0 mi Calm Calm - N/A   Scattered Clouds
7:28 AM 78.8 °F - 75.2 °F 89% 30.04 in 3.0 mi Calm Calm - N/A   Partly Cloudy
7:56 AM 82.0 °F 90.2 °F 77.0 °F 85% 29.99 in 7.0 mi Calm Calm - N/A   Clear
8:56 AM 84.0 °F 93.7 °F 77.0 °F 79% 30.01 in 10.0 mi WNW 4.6 mph - N/A   Scattered Clouds
9:56 AM 88.0 °F 97.5 °F 75.0 °F 65% 30.01 in 10.0 mi North 4.6 mph - N/A   Clear
10:56 AM 89.1 °F 98.0 °F 73.9 °F 61% 30.03 in 10.0 mi NW 3.5 mph - N/A   Mostly Cloudy
11:56 AM 91.0 °F 98.2 °F 72.0 °F 53% 30.02 in 10.0 mi NW 5.8 mph - N/A   Clear
12:56 PM 91.9 °F 99.5 °F 72.0 °F 52% 30.01 in 10.0 mi NW 5.8 mph - N/A   Clear
1:56 PM 93.0 °F 100.1 °F 71.1 °F 49% 29.99 in 10.0 mi NW 9.2 mph - N/A   Clear
2:56 PM 91.9 °F 97.4 °F 70.0 °F 48% 29.99 in 10.0 mi NE 3.5 mph - N/A   Clear
3:56 PM 93.0 °F 99.0 °F 70.0 °F 47% 29.96 in 10.0 mi NNW 5.8 mph - N/A   Partly Cloudy
4:56 PM 93.0 °F 97.9 °F 69.1 °F 45% 29.96 in 10.0 mi NW 5.8 mph - N/A   Clear
5:56 PM 88.0 °F 97.5 °F 75.0 °F 65% 29.96 in 10.0 mi SW 6.9 mph - N/A   Scattered Clouds
6:56 PM 86.0 °F 95.1 °F 75.0 °F 70% 29.98 in 10.0 mi SSW 8.1 mph - N/A   Clear
7:56 PM 82.9 °F 90.2 °F 75.0 °F 77% 29.99 in 10.0 mi SW 4.6 mph - N/A   Clear
8:56 PM 81.0 °F 86.2 °F 73.9 °F 79% 30.00 in 10.0 mi SW 4.6 mph - N/A   Clear
9:56 PM 80.1 °F 84.5 °F 73.9 °F 81% 30.02 in 10.0 mi Calm Calm - N/A   Clear
10:56 PM 80.1 °F 85.1 °F 75.0 °F 85% 30.02 in 9.0 mi SSW 4.6 mph - N/A   Clear
11:56 PM 80.1 °F 85.1 °F 75.0 °F 85% 30.01 in 8.0 mi SW 3.5 mph - N/A   Clear